Weather History for Menominee, MI

Change the Weather History Date:

Sunday, September 7, 2014

  Actual Average Record
Temperature  
Mean Temperature 62 °F -  
Max Temperature 78 °F 76 °F 93 °F (1960)
Min Temperature 48 °F 53 °F 33 °F (1956)
Degree Days  
Heating Degree Days 2    
Growing Degree Days 12 (Base 50)    
Moisture  
Dew Point 52 °F    
Average Humidity 69    
Maximum Humidity 94    
Minimum Humidity 39    
Precipitation  
Precipitation 0.00 in - - ()
Sea Level Pressure  
Sea Level Pressure 30.11 in    
Wind  
Wind Speed 4 mph (WSW)    
Max Wind Speed 12 mph    
Max Gust Speed 16 mph    
Visibility 10 miles    
Events      
Averages and records for this station are not official NWS values.
T = Trace of Precipitation, MM = Missing Value Source: NWS Daily Summary

Daily Weather History Graph

Daily Weather History Graph

Search for Another Location

Airport:

Trip Planner

Search our weather history database for the weather conditions in past years. The results will help you decide how hot, cold, wet, or windy it might be!

Date:

Astronomy

Sep. 07, 2014 Rise Set
Actual Time 6:19 AM CDT 7:16 PM CDT
Civil Twilight 5:49 AM CDT 7:46 PM CDT
Nautical Twilight 5:13 AM CDT 8:22 PM CDT
Astronomical Twilight 4:36 AM CDT 8:59 PM CDT
Moon 6:17 PM CDT (9/7) 4:28 AM CDT (9/7)
Length of Visible Light 13h 56m
Length of Day
12h 57m
Waxing Gibbous, 97% of the Moon is Illuminated
Sep 7
Waxing Gibbous
Sep 8
Full
Sep 15
Last Quarter
Sep 24
New
Oct 1
First Quarter

Hourly Weather History & Observations

Time (CDT) Temp. Dew Point Humidity Pressure Visibility Wind Dir Wind Speed Gust Speed Precip Events Conditions
12:15 AM 51.8 °F 48.2 °F 88% 30.12 in 10.0 mi NW 3.5 mph - N/A   Clear
12:35 AM 50.0 °F 46.4 °F 87% 30.12 in 10.0 mi Calm Calm - N/A   Clear
12:55 AM 50.0 °F 46.4 °F 87% 30.12 in 7.0 mi Calm Calm - N/A   Clear
1:15 AM 50.0 °F 48.2 °F 94% 30.12 in 4.0 mi Calm Calm - N/A   Clear
1:35 AM 50.0 °F 46.4 °F 87% 30.12 in 10.0 mi Calm Calm - N/A   Clear
1:55 AM 50.0 °F 46.4 °F 87% 30.12 in 10.0 mi Calm Calm - N/A   Clear
2:35 AM 48.2 °F 46.4 °F 93% 30.12 in 10.0 mi Calm Calm - N/A   Clear
2:55 AM 48.2 °F 46.4 °F 93% 30.12 in 8.0 mi Calm Calm - N/A   Clear
3:15 AM 48.2 °F 46.4 °F 93% 30.12 in 9.0 mi Calm Calm - N/A   Clear
3:35 AM 48.2 °F 44.6 °F 87% 30.12 in 1.5 mi Calm Calm - N/A   Clear
3:55 AM 48.2 °F 46.4 °F 93% 30.12 in 10.0 mi Calm Calm - N/A   Clear
4:15 AM 48.2 °F 44.6 °F 87% 30.12 in 3.0 mi Calm Calm - N/A   Clear
4:35 AM 48.2 °F 46.4 °F 93% 30.12 in 10.0 mi WSW 3.5 mph - N/A   Clear
4:55 AM 50.0 °F 46.4 °F 87% 30.12 in 10.0 mi WSW 3.5 mph - N/A   Clear
5:15 AM 50.0 °F 46.4 °F 87% 30.13 in 10.0 mi WSW 5.8 mph - N/A   Clear
5:35 AM 50.0 °F 46.4 °F 87% 30.13 in 10.0 mi WSW 4.6 mph - N/A   Clear
5:55 AM 51.8 °F 46.4 °F 82% 30.13 in 10.0 mi WSW 4.6 mph - N/A   Clear
6:15 AM 51.8 °F 46.4 °F 82% 30.13 in 10.0 mi West 3.5 mph - N/A   Clear
6:35 AM 51.8 °F 46.4 °F 82% 30.13 in 10.0 mi West 4.6 mph - N/A   Clear
6:55 AM 51.8 °F 46.4 °F 82% 30.14 in 10.0 mi WSW 4.6 mph - N/A   Clear
7:15 AM 51.8 °F 48.2 °F 88% 30.14 in 10.0 mi WSW 3.5 mph - N/A   Clear
7:35 AM 53.6 °F 48.2 °F 82% 30.14 in 10.0 mi West 3.5 mph - N/A   Clear
7:55 AM 55.4 °F 48.2 °F 77% 30.14 in 10.0 mi West 4.6 mph - N/A   Clear
8:15 AM 55.4 °F 50.0 °F 82% 30.14 in 10.0 mi West 4.6 mph - N/A   Clear
8:35 AM 59.0 °F 51.8 °F 77% 30.14 in 10.0 mi WSW 6.9 mph - N/A   Clear
8:55 AM 60.8 °F 53.6 °F 77% 30.14 in 10.0 mi WSW 6.9 mph - N/A   Clear
9:15 AM 62.6 °F 53.6 °F 72% 30.14 in 10.0 mi WSW 6.9 mph - N/A   Clear
9:35 AM 64.4 °F 53.6 °F 68% 30.14 in 10.0 mi WSW 5.8 mph - N/A   Clear
9:55 AM 66.2 °F 55.4 °F 68% 30.14 in 10.0 mi West 6.9 mph - N/A   Clear
10:15 AM 68.0 °F 55.4 °F 64% 30.14 in 10.0 mi WSW 10.4 mph - N/A   Clear
10:35 AM 69.8 °F 55.4 °F 60% 30.13 in 10.0 mi West 8.1 mph - N/A   Clear
10:55 AM 71.6 °F 57.2 °F 60% 30.13 in 10.0 mi SW 5.8 mph - N/A   Clear
11:15 AM 71.6 °F 55.4 °F 57% 30.13 in 10.0 mi West 5.8 mph - N/A   Clear
11:35 AM 73.4 °F 55.4 °F 53% 30.13 in 10.0 mi WSW 6.9 mph - N/A   Clear
11:55 AM 73.4 °F 53.6 °F 50% 30.13 in 10.0 mi West 6.9 mph - N/A   Clear
12:15 PM 73.4 °F 55.4 °F 53% 30.13 in 10.0 mi West 6.9 mph - N/A   Clear
12:35 PM 73.4 °F 53.6 °F 50% 30.13 in 10.0 mi West 8.1 mph - N/A   Clear
12:55 PM 75.2 °F 55.4 °F 50% 30.12 in 10.0 mi West 6.9 mph - N/A   Clear
1:15 PM 75.2 °F 55.4 °F 50% 30.12 in 10.0 mi SW 5.8 mph - N/A   Clear
1:35 PM 75.2 °F 53.6 °F 47% 30.12 in 10.0 mi West 4.6 mph - N/A   Clear
1:55 PM 75.2 °F 53.6 °F 47% 30.11 in 10.0 mi West 8.1 mph - N/A   Clear
2:15 PM 75.2 °F 55.4 °F 50% 30.11 in 10.0 mi WSW 6.9 mph - N/A   Clear
2:35 PM 75.2 °F 53.6 °F 47% 30.10 in 10.0 mi Calm Calm - N/A   Partly Cloudy
2:55 PM 77.0 °F 51.8 °F 41% 30.10 in 10.0 mi WSW 11.5 mph 16.1 mph N/A   Clear
3:15 PM 75.2 °F 51.8 °F 44% 30.09 in 10.0 mi WSW 5.8 mph - N/A   Clear
3:35 PM 77.0 °F 50.0 °F 39% 30.09 in 10.0 mi SW 5.8 mph - N/A   Partly Cloudy
3:55 PM 77.0 °F 51.8 °F 41% 30.09 in 10.0 mi West 5.8 mph - N/A   Partly Cloudy
4:15 PM 77.0 °F 51.8 °F 41% 30.08 in 10.0 mi SW 8.1 mph - N/A   Clear
4:35 PM 77.0 °F 51.8 °F 41% 30.08 in 10.0 mi WSW 4.6 mph - N/A   Clear
4:55 PM 75.2 °F 51.8 °F 44% 30.08 in 10.0 mi WSW 5.8 mph - N/A   Clear
5:15 PM 75.2 °F 51.8 °F 44% 30.08 in 10.0 mi WSW 8.1 mph - N/A   Clear
5:35 PM 75.2 °F 51.8 °F 44% 30.08 in 10.0 mi SW 6.9 mph - N/A   Clear
5:55 PM 73.4 °F 55.4 °F 53% 30.08 in 10.0 mi SW 6.9 mph - N/A   Clear
6:35 PM 71.6 °F 57.2 °F 60% 30.08 in 10.0 mi SSW 5.8 mph - N/A   Clear
6:55 PM 69.8 °F 55.4 °F 60% 30.08 in 10.0 mi SW 4.6 mph - N/A   Clear
7:15 PM 69.8 °F 55.4 °F 60% 30.08 in 10.0 mi SW 3.5 mph - N/A   Clear
7:35 PM 68.0 °F 55.4 °F 64% 30.08 in 10.0 mi SW 4.6 mph - N/A   Clear
7:55 PM 66.2 °F 55.4 °F 68% 30.08 in 10.0 mi SW 4.6 mph - N/A   Clear
8:15 PM 66.2 °F 55.4 °F 68% 30.08 in 10.0 mi SW 3.5 mph - N/A   Clear
8:35 PM 64.4 °F 55.4 °F 73% 30.09 in 10.0 mi SW 4.6 mph - N/A   Clear
8:55 PM 64.4 °F 55.4 °F 73% 30.09 in 10.0 mi SSW 6.9 mph - N/A   Clear
9:35 PM 64.4 °F 57.2 °F 77% 30.10 in 10.0 mi SW 5.8 mph - N/A   Clear
9:55 PM 64.4 °F 57.2 °F 77% 30.10 in 10.0 mi SW 8.1 mph - N/A   Clear
10:35 PM 64.4 °F 57.2 °F 77% 30.10 in 10.0 mi SW 8.1 mph - N/A   Clear
11:15 PM 62.6 °F 57.2 °F 82% 30.10 in 10.0 mi SW 5.8 mph - N/A   Clear
11:35 PM 62.6 °F 57.2 °F 82% 30.10 in 10.0 mi SW 5.8 mph - N/A   Clear
11:55 PM 62.6 °F 55.4 °F 77% 30.10 in 10.0 mi SW 6.9 mph - N/A   Clear